QPF
0.00 0.01 0.03 0.04 0.06 0.06 0.06 0.09 0.09 0.06 0.04 0.04 0.04 0.03 0.05 0.07 0.13 0.15 0.20 0.30 0.18 0.06 0.06 0.11 0.09 0.08 0.08 0.06 0.06 0.04 0.03 0.02 0.02 0.01 0.02 0.02 0.01 0.02 0.02 0.02 0.02 0.03 0.02 0.02 0.01 0.01 0.01 0.01 0.01
0.00 0.02 0.04 0.06 0.07 0.06 0.07 0.09 0.06 0.07 0.07 0.04 0.02 0.03 0.04 0.07 0.13 0.19 0.25 0.28 0.21 0.08 0.05 0.06 0.09 0.07 0.05 0.04 0.04 0.05 0.03 0.02 0.01 0.01 0.02 0.02 0.02 0.01 0.01 0.01 0.02 0.02 0.02 0.02 0.01 0.01 0.01 0.01 0.00
0.01 0.04 0.05 0.05 0.08 0.08 0.07 0.07 0.04 0.05 0.05 0.02 0.01 0.02 0.03 0.07 0.13 0.24 0.23 0.16 0.15 0.08 0.06 0.07 0.08 0.05 0.04 0.04 0.03 0.04 0.03 0.02 0.01 0.01 0.01 0.02 0.01 0.01 0.00 0.00 0.01 0.01 0.01 0.01 0.01 0.00 0.00 0.01 0.00
0.03 0.04 0.05 0.05 0.08 0.09 0.07 0.05 0.04 0.04 0.02 0.01 0.01 0.02 0.04 0.11 0.14 0.22 0.19 0.12 0.09 0.06 0.07 0.08 0.08 0.06 0.04 0.04 0.03 0.02 0.01 0.01 0.01 0.01 0.01 0.01 0.01 0.00 0.00 0.00 0.00 0.00 0.00 0.00 0.00 0.00 0.00 0.00 0.00
0.04 0.05 0.04 0.04 0.10 0.13 0.08 0.05 0.03 0.02 0.02 0.01 0.01 0.03 0.07 0.14 0.13 0.12 0.13 0.08 0.06 0.06 0.08 0.09 0.08 0.05 0.03 0.02 0.02 0.01 0.00 0.00 0.00 0.00 0.00 0.00 0.00 0.00 0.00 0.00 0.00 0.00 0.00 0.00 0.00 0.00 0.00 0.00 0.00
0.04 0.06 0.04 0.04 0.11 0.14 0.07 0.04 0.01 0.01 0.02 0.02 0.02 0.06 0.15 0.23 0.19 0.14 0.17 0.11 0.07 0.05 0.07 0.05 0.04 0.03 0.02 0.03 0.02 0.01 0.00 0.00 0.00 0.00 0.00 0.00 0.00 0.00 0.00 0.00 0.00 0.00 0.00 0.00 0.00 0.00 0.00 0.00 0.00
0.03 0.04 0.03 0.05 0.09 0.11 0.05 0.03 0.02 0.01 0.03 0.02 0.02 0.07 0.18 0.27 0.25 0.18 0.18 0.11 0.07 0.06 0.05 0.04 0.03 0.03 0.03 0.02 0.02 0.00 0.00 0.00 0.00 0.00 0.00 0.00 0.00 0.00 0.00 0.00 0.00 0.00 0.00 0.00 0.00 0.00 0.00 0.01 0.01
0.03 0.03 0.03 0.05 0.08 0.09 0.05 0.03 0.01 0.02 0.04 0.02 0.01 0.04 0.08 0.13 0.16 0.15 0.11 0.10 0.08 0.08 0.06 0.04 0.03 0.02 0.03 0.03 0.02 0.01 0.01 0.00 0.00 0.00 0.00 0.00 0.00 0.00 0.00 0.00 0.00 0.00 0.00 0.00 0.00 0.00 0.00 0.01 0.01
0.02 0.03 0.03 0.07 0.06 0.10 0.05 0.02 0.02 0.02 0.03 0.02 0.01 0.02 0.03 0.04 0.07 0.09 0.09 0.12 0.14 0.11 0.06 0.04 0.03 0.03 0.04 0.03 0.03 0.02 0.02 0.00 0.00 0.00 0.00 0.00 0.00 0.00 0.00 0.00 0.00 0.00 0.00 0.00 0.00 0.00 0.00 0.01 0.01
0.03 0.03 0.04 0.05 0.04 0.05 0.05 0.04 0.03 0.03 0.03 0.03 0.03 0.04 0.03 0.04 0.04 0.05 0.08 0.10 0.15 0.11 0.06 0.06 0.05 0.04 0.03 0.01 0.01 0.01 0.00 0.00 0.00 0.00 0.00 0.00 0.00 0.00 0.00 0.00 0.00 0.00 0.00 0.00 0.00 0.00 0.00 0.00 0.01
0.02 0.04 0.05 0.03 0.03 0.04 0.07 0.05 0.03 0.03 0.03 0.04 0.04 0.04 0.03 0.03 0.03 0.03 0.03 0.05 0.07 0.08 0.05 0.07 0.06 0.03 0.02 0.01 0.00 0.00 0.00 0.00 0.00 0.00 0.00 0.00 0.00 0.00 0.00 0.00 0.00 0.00 0.00 0.00 0.00 0.00 0.00 0.00 0.00
0.03 0.05 0.04 0.03 0.02 0.03 0.06 0.05 0.04 0.04 0.03 0.03 0.03 0.03 0.03 0.02 0.01 0.03 0.02 0.03 0.04 0.03 0.03 0.04 0.04 0.03 0.01 0.00 0.00 0.00 0.00 0.00 0.00 0.00 0.00 0.00 0.00 0.00 0.00 0.00 0.00 0.00 0.00 0.00 0.00 0.00 0.00 0.00 0.00
0.04 0.05 0.04 0.02 0.02 0.03 0.05 0.07 0.06 0.04 0.03 0.02 0.02 0.02 0.02 0.01 0.01 0.02 0.03 0.02 0.02 0.02 0.02 0.03 0.03 0.04 0.02 0.01 0.00 0.00 0.00 0.00 0.00 0.00 0.00 0.00 0.00 0.00 0.00 0.00 0.00 0.00 0.00 0.00 0.00 0.00 0.00 0.00 0.00
0.05 0.05 0.04 0.03 0.03 0.03 0.05 0.09 0.06 0.06 0.06 0.04 0.02 0.02 0.02 0.01 0.01 0.02 0.02 0.02 0.01 0.01 0.03 0.03 0.04 0.04 0.03 0.02 0.01 0.01 0.00 0.00 0.00 0.00 0.00 0.00 0.00 0.00 0.00 0.00 0.00 0.00 0.00 0.00 0.00 0.00 0.00 0.00 0.00
0.08 0.05 0.04 0.06 0.05 0.04 0.04 0.07 0.07 0.05 0.04 0.03 0.03 0.02 0.02 0.02 0.03 0.03 0.02 0.01 0.01 0.01 0.04 0.04 0.04 0.08 0.04 0.02 0.01 0.01 0.00 0.00 0.00 0.00 0.00 0.00 0.00 0.00 0.00 0.00 0.00 0.00 0.00 0.00 0.00 0.00 0.00 0.00 0.00
0.09 0.05 0.05 0.05 0.05 0.05 0.06 0.06 0.08 0.08 0.04 0.04 0.03 0.03 0.03 0.04 0.05 0.04 0.02 0.01 0.00 0.01 0.02 0.03 0.03 0.10 0.05 0.02 0.02 0.01 0.00 0.00 0.00 0.00 0.00 0.00 0.00 0.00 0.00 0.00 0.00 0.00 0.00 0.00 0.00 0.00 0.00 0.00 0.00
0.07 0.05 0.05 0.06 0.05 0.04 0.05 0.06 0.07 0.08 0.03 0.02 0.02 0.02 0.04 0.04 0.04 0.03 0.03 0.02 0.01 0.01 0.01 0.02 0.02 0.05 0.04 0.02 0.02 0.01 0.01 0.01 0.00 0.00 0.00 0.00 0.00 0.00 0.00 0.00 0.00 0.00 0.00 0.00 0.00 0.00 0.00 0.00 0.00
0.04 0.04 0.06 0.06 0.04 0.02 0.03 0.04 0.06 0.06 0.05 0.04 0.03 0.03 0.03 0.02 0.03 0.02 0.03 0.04 0.02 0.02 0.02 0.01 0.01 0.01 0.02 0.02 0.02 0.01 0.01 0.00 0.00 0.00 0.00 0.00 0.00 0.00 0.00 0.00 0.00 0.00 0.00 0.00 0.00 0.00 0.00 0.00 0.00
0.03 0.04 0.06 0.05 0.02 0.01 0.02 0.02 0.03 0.03 0.02 0.03 0.05 0.04 0.03 0.03 0.02 0.02 0.03 0.04 0.02 0.01 0.01 0.01 0.00 0.00 0.01 0.01 0.02 0.01 0.00 0.00 0.00 0.00 0.00 0.00 0.00 0.00 0.00 0.00 0.00 0.00 0.00 0.00 0.00 0.00 0.00 0.00 0.00
0.03 0.03 0.04 0.05 0.03 0.02 0.01 0.01 0.01 0.02 0.02 0.03 0.04 0.04 0.03 0.03 0.02 0.02 0.01 0.02 0.01 0.01 0.00 0.01 0.01 0.00 0.00 0.00 0.01 0.00 0.00 0.00 0.00 0.00 0.00 0.00 0.00 0.00 0.00 0.00 0.00 0.00 0.00 0.00 0.00 0.00 0.01 0.01 0.00
0.03 0.02 0.03 0.04 0.02 0.02 0.02 0.02 0.02 0.02 0.02 0.03 0.02 0.02 0.02 0.01 0.01 0.01 0.01 0.01 0.01 0.00 0.01 0.01 0.01 0.01 0.01 0.00 0.01 0.01 0.00 0.00 0.00 0.00 0.00 0.00 0.00 0.00 0.00 0.00 0.00 0.00 0.00 0.00 0.00 0.00 0.00 0.00 0.01
0.05 0.02 0.02 0.02 0.02 0.02 0.01 0.02 0.02 0.02 0.02 0.02 0.02 0.01 0.02 0.01 0.01 0.02 0.02 0.01 0.00 0.00 0.01 0.02 0.02 0.01 0.02 0.01 0.01 0.01 0.00 0.00 0.00 0.00 0.00 0.00 0.00 0.00 0.00 0.00 0.00 0.00 0.00 0.00 0.00 0.00 0.00 0.00 0.00
0.04 0.02 0.02 0.01 0.01 0.02 0.01 0.01 0.01 0.01 0.02 0.02 0.01 0.01 0.02 0.02 0.01 0.01 0.01 0.02 0.01 0.01 0.01 0.01 0.02 0.02 0.02 0.02 0.02 0.01 0.01 0.00 0.00 0.00 0.00 0.00 0.00 0.00 0.00 0.00 0.00 0.00 0.00 0.00 0.00 0.00 0.00 0.00 0.00
0.03 0.03 0.02 0.02 0.02 0.02 0.01 0.01 0.01 0.01 0.01 0.01 0.02 0.02 0.02 0.02 0.01 0.02 0.03 0.02 0.00 0.01 0.01 0.01 0.01 0.02 0.02 0.02 0.02 0.01 0.01 0.00 0.00 0.00 0.00 0.00 0.00 0.00 0.00 0.00 0.00 0.00 0.00 0.00 0.00 0.00 0.00 0.00 0.00
0.02 0.03 0.03 0.04 0.03 0.02 0.01 0.01 0.01 0.01 0.01 0.01 0.02 0.02 0.02 0.02 0.02 0.02 0.03 0.02 0.01 0.01 0.01 0.02 0.02 0.02 0.02 0.01 0.01 0.02 0.01 0.00 0.00 0.00 0.00 0.00 0.00 0.00 0.00 0.00 0.00 0.00 0.00 0.00 0.00 0.00 0.00 0.00 0.00
0.01 0.02 0.02 0.03 0.03 0.02 0.02 0.01 0.02 0.01 0.01 0.01 0.01 0.02 0.03 0.02 0.01 0.01 0.02 0.03 0.01 0.01 0.01 0.01 0.01 0.02 0.01 0.01 0.01 0.01 0.01 0.00 0.00 0.00 0.00 0.00 0.00 0.00 0.00 0.00 0.00 0.00 0.00 0.00 0.00 0.00 0.00 0.01 0.00
0.02 0.02 0.02 0.03 0.03 0.03 0.03 0.02 0.02 0.01 0.01 0.01 0.02 0.02 0.03 0.02 0.01 0.01 0.02 0.02 0.01 0.01 0.00 0.01 0.01 0.01 0.01 0.01 0.01 0.00 0.00 0.00 0.00 0.00 0.00 0.00 0.00 0.00 0.00 0.00 0.00 0.00 0.00 0.00 0.00 0.00 0.00 0.00 0.00
0.01 0.01 0.02 0.02 0.03 0.05 0.03 0.03 0.02 0.01 0.01 0.01 0.02 0.02 0.02 0.02 0.02 0.02 0.02 0.02 0.02 0.01 0.01 0.01 0.01 0.01 0.01 0.01 0.01 0.00 0.00 0.01 0.00 0.00 0.00 0.00 0.00 0.00 0.00 0.00 0.00 0.00 0.00 0.00 0.00 0.00 0.00 0.00 0.00
0.01 0.02 0.02 0.02 0.02 0.05 0.05 0.03 0.02 0.01 0.02 0.02 0.01 0.01 0.01 0.01 0.02 0.03 0.03 0.03 0.02 0.01 0.01 0.01 0.00 0.01 0.01 0.01 0.00 0.00 0.00 0.00 0.00 0.00 0.00 0.00 0.00 0.00 0.00 0.00 0.00 0.00 0.00 0.00 0.00 0.00 0.00 0.00 0.00
0.01 0.01 0.01 0.02 0.01 0.03 0.03 0.02 0.01 0.01 0.01 0.01 0.02 0.01 0.01 0.01 0.02 0.02 0.02 0.02 0.02 0.01 0.01 0.01 0.00 0.01 0.01 0.00 0.00 0.01 0.00 0.00 0.00 0.00 0.00 0.00 0.00 0.00 0.00 0.00 0.00 0.00 0.00 0.00 0.00 0.00 0.00 0.00 0.01
MSLP
1009.25 1010.20 1011.41 1012.74 1014.02 1015.12 1015.97 1016.52 1016.80 1016.87 1016.83 1016.77 1016.76 1016.82 1016.95 1017.10 1017.22 1017.26 1017.17 1016.96 1016.64 1016.26 1015.88 1015.54 1015.30 1015.16 1015.12 1015.14 1015.19 1015.23 1015.23 1015.20 1015.13 1015.06 1015.01 1014.99 1015.02 1015.08 1015.16 1015.23 1015.26 1015.24 1015.17 1015.06 1014.93 1014.80 1014.70 1014.63 1014.60
1009.68 1010.83 1012.16 1013.52 1014.75 1015.73 1016.41 1016.78 1016.88 1016.81 1016.68 1016.57 1016.55 1016.63 1016.79 1016.99 1017.16 1017.24 1017.20 1017.03 1016.76 1016.42 1016.09 1015.80 1015.60 1015.49 1015.46 1015.50 1015.55 1015.60 1015.61 1015.59 1015.54 1015.48 1015.43 1015.41 1015.42 1015.45 1015.49 1015.50 1015.49 1015.44 1015.34 1015.22 1015.10 1014.98 1014.89 1014.83 1014.80
1010.33 1011.60 1012.98 1014.29 1015.40 1016.22 1016.71 1016.90 1016.85 1016.68 1016.49 1016.36 1016.35 1016.46 1016.67 1016.90 1017.10 1017.20 1017.19 1017.05 1016.81 1016.52 1016.24 1016.00 1015.85 1015.78 1015.79 1015.84 1015.90 1015.96 1015.98 1015.96 1015.92 1015.86 1015.81 1015.77 1015.76 1015.74 1015.73 1015.71 1015.65 1015.57 1015.46 1015.34 1015.23 1015.13 1015.06 1015.01 1014.99
1011.14 1012.47 1013.81 1015.01 1015.96 1016.59 1016.90 1016.93 1016.77 1016.54 1016.34 1016.23 1016.26 1016.41 1016.64 1016.88 1017.08 1017.19 1017.17 1017.04 1016.83 1016.59 1016.35 1016.17 1016.07 1016.04 1016.08 1016.15 1016.22 1016.28 1016.30 1016.28 1016.24 1016.18 1016.11 1016.06 1016.01 1015.97 1015.92 1015.85 1015.76 1015.66 1015.55 1015.44 1015.34 1015.27 1015.22 1015.20 1015.20
1012.06 1013.36 1014.60 1015.63 1016.39 1016.83 1016.98 1016.90 1016.69 1016.46 1016.29 1016.24 1016.32 1016.50 1016.75 1016.98 1017.16 1017.23 1017.19 1017.06 1016.86 1016.65 1016.46 1016.33 1016.27 1016.28 1016.34 1016.41 1016.48 1016.53 1016.54 1016.51 1016.46 1016.39 1016.33 1016.26 1016.20 1016.13 1016.06 1015.97 1015.87 1015.75 1015.64 1015.54 1015.46 1015.41 1015.39 1015.39 1015.42
1013.00 1014.20 1015.27 1016.12 1016.68 1016.95 1016.99 1016.85 1016.65 1016.47 1016.38 1016.41 1016.54 1016.76 1017.00 1017.20 1017.33 1017.35 1017.27 1017.12 1016.93 1016.74 1016.60 1016.51 1016.49 1016.52 1016.58 1016.64 1016.69 1016.70 1016.69 1016.64 1016.58 1016.52 1016.45 1016.39 1016.33 1016.26 1016.18 1016.09 1015.98 1015.87 1015.75 1015.66 1015.59 1015.56 1015.55 1015.57 1015.61
1013.85 1014.90 1015.78 1016.42 1016.81 1016.95 1016.92 1016.79 1016.65 1016.57 1016.58 1016.69 1016.89 1017.12 1017.34 1017.50 1017.56 1017.52 1017.40 1017.23 1017.05 1016.89 1016.78 1016.73 1016.73 1016.76 1016.81 1016.84 1016.85 1016.83 1016.78 1016.71 1016.64 1016.58 1016.53 1016.49 1016.45 1016.40 1016.33 1016.23 1016.12 1016.00 1015.89 1015.79 1015.72 1015.68 1015.68 1015.71 1015.75
1014.54 1015.42 1016.10 1016.56 1016.80 1016.87 1016.82 1016.74 1016.69 1016.71 1016.84 1017.04 1017.28 1017.51 1017.70 1017.80 1017.80 1017.70 1017.55 1017.37 1017.20 1017.07 1017.00 1016.98 1016.99 1017.02 1017.04 1017.04 1016.99 1016.93 1016.84 1016.75 1016.68 1016.63 1016.60 1016.59 1016.58 1016.55 1016.50 1016.41 1016.30 1016.17 1016.03 1015.92 1015.83 1015.78 1015.77 1015.79 1015.84
1015.07 1015.77 1016.28 1016.58 1016.71 1016.73 1016.71 1016.69 1016.74 1016.88 1017.09 1017.35 1017.62 1017.84 1017.98 1018.02 1017.96 1017.83 1017.67 1017.50 1017.36 1017.27 1017.24 1017.25 1017.27 1017.29 1017.28 1017.23 1017.14 1017.03 1016.91 1016.81 1016.73 1016.70 1016.70 1016.72 1016.75 1016.74 1016.70 1016.62 1016.49 1016.34 1016.18 1016.03 1015.92 1015.84 1015.81 1015.82 1015.86
1015.46 1016.01 1016.37 1016.55 1016.62 1016.62 1016.63 1016.68 1016.82 1017.04 1017.31 1017.60 1017.85 1018.03 1018.12 1018.11 1018.02 1017.87 1017.71 1017.58 1017.49 1017.45 1017.47 1017.51 1017.55 1017.56 1017.52 1017.44 1017.31 1017.16 1017.02 1016.91 1016.85 1016.84 1016.86 1016.91 1016.96 1016.98 1016.94 1016.85 1016.70 1016.52 1016.33 1016.14 1015.99 1015.89 1015.84 1015.83 1015.87
1015.79 1016.22 1016.46 1016.57 1016.59 1016.60 1016.64 1016.75 1016.93 1017.19 1017.47 1017.73 1017.95 1018.08 1018.11 1018.06 1017.95 1017.81 1017.68 1017.59 1017.56 1017.59 1017.65 1017.72 1017.78 1017.79 1017.74 1017.64 1017.49 1017.34 1017.19 1017.09 1017.04 1017.04 1017.09 1017.16 1017.22 1017.24 1017.20 1017.09 1016.92 1016.71 1016.48 1016.26 1016.08 1015.96 1015.89 1015.88 1015.92
1016.15 1016.49 1016.66 1016.72 1016.72 1016.73 1016.79 1016.92 1017.11 1017.34 1017.58 1017.79 1017.93 1017.99 1017.98 1017.89 1017.78 1017.66 1017.58 1017.55 1017.58 1017.66 1017.77 1017.88 1017.95 1017.97 1017.93 1017.83 1017.69 1017.55 1017.42 1017.33 1017.30 1017.32 1017.38 1017.46 1017.51 1017.52 1017.47 1017.34 1017.15 1016.91 1016.66 1016.42 1016.23 1016.10 1016.03 1016.02 1016.06
1016.61 1016.89 1017.01 1017.04 1017.03 1017.04 1017.10 1017.21 1017.37 1017.54 1017.70 1017.82 1017.87 1017.86 1017.79 1017.69 1017.58 1017.50 1017.47 1017.49 1017.57 1017.70 1017.83 1017.96 1018.05 1018.09 1018.07 1018.00 1017.90 1017.79 1017.69 1017.64 1017.63 1017.66 1017.71 1017.78 1017.82 1017.81 1017.73 1017.59 1017.38 1017.14 1016.88 1016.65 1016.46 1016.34 1016.28 1016.28 1016.33
1017.20 1017.44 1017.53 1017.55 1017.53 1017.54 1017.57 1017.64 1017.73 1017.81 1017.86 1017.87 1017.83 1017.75 1017.64 1017.54 1017.45 1017.41 1017.41 1017.48 1017.58 1017.72 1017.86 1018.00 1018.10 1018.16 1018.17 1018.15 1018.10 1018.05 1018.00 1017.98 1017.99 1018.02 1018.06 1018.10 1018.12 1018.08 1017.99 1017.84 1017.63 1017.40 1017.17 1016.96 1016.79 1016.69 1016.66 1016.68 1016.73
1017.88 1018.09 1018.17 1018.18 1018.17 1018.17 1018.17 1018.18 1018.19 1018.16 1018.10 1018.01 1017.89 1017.75 1017.63 1017.52 1017.46 1017.45 1017.48 1017.56 1017.66 1017.78 1017.91 1018.02 1018.12 1018.20 1018.26 1018.29 1018.31 1018.32 1018.33 1018.34 1018.36 1018.38 1018.40 1018.41 1018.39 1018.33 1018.23 1018.08 1017.90 1017.70 1017.50 1017.33 1017.21 1017.14 1017.13 1017.17 1017.24
1018.58 1018.76 1018.84 1018.87 1018.87 1018.86 1018.84 1018.79 1018.71 1018.59 1018.43 1018.25 1018.07 1017.90 1017.77 1017.69 1017.66 1017.67 1017.71 1017.78 1017.85 1017.92 1018.00 1018.08 1018.16 1018.25 1018.34 1018.43 1018.52 1018.60 1018.66 1018.70 1018.73 1018.73 1018.72 1018.69 1018.64 1018.56 1018.46 1018.32 1018.17 1018.02 1017.87 1017.75 1017.67 1017.64 1017.65 1017.70 1017.77
1019.19 1019.36 1019.46 1019.52 1019.55 1019.55 1019.52 1019.42 1019.27 1019.06 1018.82 1018.58 1018.36 1018.18 1018.07 1018.02 1018.03 1018.06 1018.10 1018.13 1018.15 1018.15 1018.16 1018.18 1018.23 1018.32 1018.44 1018.58 1018.73 1018.87 1018.98 1019.05 1019.08 1019.06 1019.02 1018.95 1018.86 1018.77 1018.67 1018.56 1018.45 1018.35 1018.25 1018.18 1018.14 1018.13 1018.16 1018.22 1018.28
1019.62 1019.81 1019.96 1020.08 1020.16 1020.20 1020.16 1020.03 1019.82 1019.54 1019.24 1018.94 1018.70 1018.53 1018.46 1018.45 1018.49 1018.55 1018.58 1018.58 1018.53 1018.46 1018.38 1018.34 1018.35 1018.42 1018.56 1018.75 1018.95 1019.14 1019.29 1019.38 1019.40 1019.37 1019.29 1019.19 1019.08 1018.98 1018.89 1018.81 1018.74 1018.68 1018.63 1018.60 1018.58 1018.58 1018.61 1018.66 1018.72
1019.86 1020.09 1020.32 1020.53 1020.69 1020.77 1020.75 1020.59 1020.33 1019.98 1019.61 1019.27 1019.01 1018.86 1018.83 1018.87 1018.96 1019.04 1019.08 1019.04 1018.94 1018.79 1018.64 1018.53 1018.49 1018.55 1018.70 1018.92 1019.16 1019.39 1019.57 1019.68 1019.70 1019.65 1019.55 1019.42 1019.30 1019.20 1019.13 1019.08 1019.05 1019.03 1019.01 1018.99 1018.98 1018.97 1018.99 1019.02 1019.07
1019.90 1020.23 1020.57 1020.90 1021.16 1021.30 1021.28 1021.09 1020.76 1020.33 1019.89 1019.49 1019.21 1019.07 1019.07 1019.17 1019.31 1019.43 1019.48 1019.44 1019.30 1019.10 1018.89 1018.72 1018.65 1018.69 1018.84 1019.07 1019.35 1019.61 1019.82 1019.94 1019.97 1019.91 1019.80 1019.67 1019.55 1019.46 1019.41 1019.39 1019.39 1019.40 1019.39 1019.38 1019.35 1019.33 1019.32 1019.33 1019.36
1019.83 1020.29 1020.78 1021.25 1021.61 1021.80 1021.77 1021.53 1021.11 1020.57 1020.03 1019.55 1019.23 1019.07 1019.10 1019.24 1019.44 1019.62 1019.71 1019.68 1019.54 1019.32 1019.08 1018.87 1018.77 1018.80 1018.95 1019.19 1019.49 1019.78 1020.02 1020.16 1020.21 1020.17 1020.07 1019.96 1019.85 1019.78 1019.76 1019.77 1019.79 1019.81 1019.80 1019.78 1019.73 1019.68 1019.64 1019.63 1019.65
1019.75 1020.37 1021.02 1021.63 1022.08 1022.30 1022.25 1021.92 1021.37 1020.69 1020.00 1019.42 1019.02 1018.83 1018.86 1019.05 1019.31 1019.56 1019.71 1019.73 1019.62 1019.42 1019.17 1018.96 1018.85 1018.86 1019.01 1019.27 1019.58 1019.90 1020.17 1020.35 1020.42 1020.42 1020.36 1020.28 1020.21 1020.17 1020.18 1020.21 1020.25 1020.28 1020.27 1020.23 1020.16 1020.08 1020.01 1019.98 1020.00
1019.74 1020.53 1021.35 1022.07 1022.59 1022.81 1022.69 1022.24 1021.53 1020.68 1019.83 1019.10 1018.60 1018.37 1018.39 1018.61 1018.94 1019.26 1019.50 1019.60 1019.55 1019.39 1019.18 1018.98 1018.87 1018.89 1019.04 1019.30 1019.63 1019.97 1020.27 1020.49 1020.62 1020.66 1020.66 1020.63 1020.61 1020.62 1020.66 1020.72 1020.78 1020.81 1020.80 1020.74 1020.65 1020.55 1020.47 1020.43 1020.46
1019.85 1020.80 1021.75 1022.56 1023.11 1023.29 1023.07 1022.48 1021.59 1020.55 1019.52 1018.64 1018.03 1017.74 1017.75 1018.00 1018.38 1018.79 1019.13 1019.32 1019.37 1019.28 1019.11 1018.95 1018.86 1018.89 1019.04 1019.31 1019.65 1020.01 1020.34 1020.61 1020.79 1020.90 1020.96 1021.00 1021.04 1021.09 1021.17 1021.26 1021.34 1021.38 1021.37 1021.32 1021.22 1021.11 1021.03 1020.99 1021.02
1020.06 1021.13 1022.17 1023.03 1023.56 1023.67 1023.34 1022.58 1021.52 1020.29 1019.10 1018.09 1017.38 1017.03 1017.02 1017.30 1017.75 1018.25 1018.68 1018.98 1019.12 1019.12 1019.03 1018.91 1018.85 1018.89 1019.05 1019.32 1019.66 1020.04 1020.40 1020.72 1020.96 1021.13 1021.26 1021.36 1021.46 1021.57 1021.69 1021.81 1021.90 1021.96 1021.97 1021.92 1021.84 1021.74 1021.66 1021.63 1021.67
1020.32 1021.46 1022.53 1023.38 1023.85 1023.87 1023.40 1022.50 1021.29 1019.92 1018.60 1017.48 1016.71 1016.32 1016.32 1016.63 1017.13 1017.71 1018.24 1018.65 1018.89 1018.97 1018.95 1018.90 1018.87 1018.92 1019.08 1019.35 1019.70 1020.09 1020.47 1020.82 1021.11 1021.34 1021.53 1021.69 1021.84 1022.00 1022.15 1022.30 1022.43 1022.51 1022.54 1022.52 1022.46 1022.38 1022.33 1022.31 1022.36
1020.53 1021.68 1022.72 1023.50 1023.88 1023.79 1023.21 1022.19 1020.87 1019.42 1018.03 1016.88 1016.08 1015.69 1015.70 1016.05 1016.61 1017.25 1017.86 1018.35 1018.68 1018.86 1018.91 1018.91 1018.93 1019.00 1019.17 1019.44 1019.78 1020.17 1020.56 1020.93 1021.25 1021.52 1021.76 1021.96 1022.16 1022.35 1022.54 1022.72 1022.87 1022.98 1023.04 1023.06 1023.03 1023.00 1022.97 1022.98 1023.03
1020.60 1021.68 1022.63 1023.31 1023.58 1023.38 1022.71 1021.63 1020.27 1018.80 1017.42 1016.29 1015.52 1015.16 1015.21 1015.59 1016.19 1016.88 1017.55 1018.11 1018.51 1018.76 1018.89 1018.95 1019.01 1019.11 1019.29 1019.56 1019.90 1020.28 1020.67 1021.04 1021.38 1021.67 1021.93 1022.17 1022.39 1022.61 1022.83 1023.03 1023.21 1023.35 1023.45 1023.51 1023.53 1023.54 1023.54 1023.57 1023.63
1020.45 1021.41 1022.23 1022.76 1022.91 1022.62 1021.89 1020.79 1019.47 1018.07 1016.77 1015.72 1015.03 1014.73 1014.82 1015.23 1015.86 1016.57 1017.27 1017.87 1018.33 1018.64 1018.84 1018.97 1019.08 1019.22 1019.43 1019.70 1020.03 1020.40 1020.78 1021.15 1021.48 1021.78 1022.05 1022.30 1022.54 1022.78 1023.01 1023.24 1023.44 1023.62 1023.76 1023.86 1023.92 1023.97 1024.01 1024.05 1024.11
1020.08 1020.88 1021.53 1021.90 1021.92 1021.55 1020.80 1019.74 1018.51 1017.23 1016.07 1015.15 1014.57 1014.35 1014.49 1014.92 1015.54 1016.25 1016.94 1017.56 1018.06 1018.43 1018.69 1018.89 1019.07 1019.27 1019.51 1019.81 1020.15 1020.51 1020.88 1021.23 1021.55 1021.85 1022.12 1022.38 1022.63 1022.87 1023.12 1023.37 1023.60 1023.80 1023.98 1024.11 1024.22 1024.30 1024.36 1024.42 1024.49
Thickness
5788 5788 5785 5772 5748 5729 5725 5736 5746 5749 5751 5757 5762 5759 5752 5746 5740 5733 5751 5761 5762 5763 5763 5764 5765 5765 5766 5766 5767 5767 5766 5766 5766 5766 5766 5765 5764 5764 5764 5764 5763 5763 5763 5763 5762 5763 5763 5763 5764
5786 5785 5774 5756 5730 5713 5721 5737 5743 5750 5756 5761 5761 5758 5752 5747 5752 5750 5753 5758 5761 5761 5761 5762 5763 5763 5763 5764 5764 5764 5764 5764 5764 5764 5764 5763 5763 5762 5762 5762 5762 5761 5761 5761 5761 5761 5761 5761 5762
5783 5780 5759 5740 5725 5716 5723 5738 5745 5754 5761 5762 5755 5754 5750 5746 5751 5752 5755 5759 5760 5759 5759 5760 5760 5761 5761 5762 5762 5762 5762 5762 5762 5762 5762 5761 5761 5761 5761 5761 5760 5760 5759 5759 5759 5759 5759 5759 5760
5775 5762 5749 5731 5723 5730 5735 5742 5750 5752 5755 5758 5754 5745 5747 5754 5755 5755 5757 5758 5758 5758 5758 5758 5758 5759 5759 5760 5760 5760 5760 5760 5760 5760 5760 5759 5759 5759 5759 5759 5758 5758 5758 5757 5757 5757 5757 5757 5758
5766 5747 5729 5719 5723 5733 5741 5747 5751 5747 5746 5749 5750 5738 5738 5751 5757 5757 5756 5756 5756 5756 5756 5756 5757 5757 5757 5758 5758 5758 5759 5759 5759 5758 5758 5758 5758 5757 5757 5757 5756 5756 5756 5756 5756 5755 5755 5755 5756
5747 5735 5715 5709 5720 5731 5739 5747 5747 5742 5742 5744 5743 5736 5735 5748 5751 5753 5755 5755 5755 5755 5755 5755 5755 5756 5756 5756 5756 5757 5757 5757 5757 5757 5756 5756 5756 5756 5755 5755 5755 5755 5754 5754 5754 5754 5754 5753 5753
5738 5725 5713 5714 5716 5723 5736 5746 5743 5739 5738 5741 5744 5733 5734 5743 5749 5753 5753 5753 5753 5753 5754 5754 5754 5754 5755 5755 5755 5756 5756 5756 5756 5755 5755 5754 5754 5754 5754 5754 5753 5753 5753 5753 5752 5752 5752 5752 5752
5744 5725 5714 5713 5716 5722 5739 5745 5745 5741 5738 5748 5747 5733 5731 5742 5750 5751 5751 5750 5750 5751 5751 5751 5752 5752 5753 5753 5754 5754 5755 5754 5754 5754 5753 5753 5753 5753 5753 5752 5752 5751 5751 5751 5751 5751 5751 5750 5750
5746 5716 5706 5714 5718 5724 5739 5739 5741 5746 5742 5744 5746 5743 5744 5748 5749 5746 5744 5744 5745 5747 5749 5750 5750 5750 5751 5752 5752 5753 5753 5753 5752 5752 5752 5752 5751 5751 5751 5750 5750 5750 5750 5750 5749 5749 5749 5749 5748
5731 5709 5716 5728 5730 5731 5737 5737 5738 5735 5731 5733 5737 5742 5746 5745 5744 5741 5739 5739 5741 5743 5746 5748 5749 5749 5750 5750 5751 5751 5751 5751 5751 5751 5751 5750 5750 5749 5749 5749 5748 5748 5748 5748 5747 5747 5747 5747 5746
5730 5718 5725 5733 5739 5739 5736 5735 5739 5730 5722 5729 5732 5736 5740 5741 5740 5739 5739 5740 5742 5744 5746 5747 5748 5748 5748 5748 5748 5749 5749 5749 5749 5749 5749 5749 5749 5748 5747 5746 5746 5745 5745 5745 5745 5744 5744 5744 5744
5727 5728 5732 5734 5741 5739 5734 5733 5732 5731 5730 5738 5740 5740 5738 5736 5737 5738 5738 5741 5743 5745 5746 5747 5748 5747 5747 5747 5747 5747 5747 5747 5748 5748 5748 5747 5746 5745 5744 5743 5743 5742 5742 5742 5741 5741 5741 5741 5740
5723 5725 5734 5737 5739 5737 5735 5730 5729 5729 5737 5740 5740 5738 5736 5736 5737 5739 5741 5742 5743 5743 5744 5746 5747 5746 5746 5745 5746 5745 5745 5745 5745 5746 5746 5745 5744 5742 5741 5740 5740 5739 5739 5738 5738 5737 5737 5736 5736
5725 5727 5729 5733 5734 5734 5728 5726 5726 5725 5735 5735 5734 5733 5735 5735 5736 5737 5739 5740 5741 5742 5743 5745 5745 5745 5745 5744 5743 5743 5743 5743 5743 5743 5743 5742 5741 5740 5739 5738 5737 5736 5736 5735 5734 5733 5733 5733 5732
5730 5720 5719 5723 5727 5728 5727 5714 5719 5726 5731 5729 5729 5731 5732 5734 5736 5736 5738 5739 5741 5741 5743 5743 5744 5744 5743 5742 5742 5741 5741 5741 5741 5740 5740 5739 5738 5737 5736 5735 5733 5733 5733 5732 5731 5730 5730 5729 5728
5719 5708 5699 5713 5722 5726 5717 5698 5716 5726 5725 5722 5724 5727 5729 5731 5735 5737 5739 5740 5741 5741 5741 5742 5743 5742 5741 5740 5740 5739 5739 5739 5738 5737 5737 5736 5735 5734 5733 5731 5730 5729 5729 5729 5727 5726 5724 5723 5722
5700 5692 5693 5704 5719 5721 5712 5701 5715 5724 5723 5719 5721 5723 5725 5728 5732 5736 5739 5739 5740 5740 5739 5739 5740 5739 5739 5738 5737 5736 5736 5736 5735 5734 5733 5733 5732 5731 5730 5728 5727 5726 5725 5724 5724 5721 5720 5718 5717
5691 5692 5696 5699 5713 5715 5707 5705 5714 5721 5721 5718 5719 5720 5723 5726 5729 5735 5737 5738 5738 5738 5738 5737 5737 5737 5736 5735 5734 5733 5732 5732 5732 5731 5730 5730 5729 5728 5727 5726 5724 5723 5721 5720 5719 5717 5716 5715 5714
5705 5700 5696 5702 5715 5712 5705 5706 5712 5718 5718 5716 5716 5718 5721 5724 5730 5734 5735 5736 5735 5735 5734 5734 5733 5734 5733 5731 5729 5728 5726 5727 5727 5727 5727 5727 5726 5725 5724 5723 5721 5720 5717 5716 5715 5714 5712 5710 5710
5706 5698 5696 5703 5714 5711 5703 5704 5713 5717 5718 5719 5719 5718 5720 5722 5725 5728 5731 5732 5732 5731 5732 5731 5731 5731 5731 5730 5729 5728 5726 5724 5724 5724 5724 5724 5723 5722 5721 5720 5718 5716 5714 5713 5712 5710 5707 5706 5706
5705 5701 5699 5700 5708 5710 5701 5696 5705 5715 5721 5722 5723 5722 5723 5723 5724 5726 5728 5728 5729 5729 5730 5731 5730 5730 5730 5729 5728 5726 5723 5721 5720 5720 5720 5720 5721 5720 5719 5718 5716 5714 5712 5709 5708 5707 5704 5701 5701
5699 5713 5712 5707 5695 5686 5695 5676 5696 5708 5713 5718 5720 5720 5721 5726 5726 5726 5726 5726 5728 5729 5730 5730 5729 5729 5728 5727 5725 5722 5718 5715 5716 5716 5717 5718 5718 5718 5717 5715 5713 5711 5710 5708 5706 5705 5702 5700 5696
5709 5719 5714 5708 5695 5686 5690 5680 5689 5705 5705 5714 5720 5722 5724 5726 5727 5727 5727 5727 5729 5729 5729 5728 5727 5726 5726 5725 5724 5721 5718 5716 5715 5715 5715 5715 5715 5715 5714 5713 5711 5709 5707 5706 5704 5702 5700 5698 5695
5719 5711 5705 5696 5687 5674 5687 5682 5686 5700 5712 5718 5722 5725 5725 5726 5727 5727 5727 5727 5727 5727 5727 5726 5724 5723 5724 5723 5722 5720 5717 5715 5713 5712 5712 5711 5711 5712 5711 5710 5709 5707 5705 5704 5702 5700 5698 5696 5694
5710 5688 5671 5668 5663 5669 5692 5688 5695 5719 5729 5730 5728 5726 5727 5727 5726 5725 5724 5723 5724 5724 5724 5723 5722 5721 5722 5721 5720 5719 5717 5715 5713 5712 5710 5709 5708 5708 5708 5708 5707 5705 5703 5702 5700 5698 5696 5694 5691
5703 5692 5669 5661 5661 5672 5690 5688 5707 5732 5739 5739 5736 5732 5729 5727 5726 5726 5725 5724 5724 5723 5723 5722 5721 5719 5719 5719 5718 5717 5716 5715 5713 5712 5710 5708 5707 5706 5707 5706 5705 5703 5701 5700 5698 5696 5693 5691 5689
5700 5692 5695 5679 5677 5671 5680 5696 5716 5732 5732 5732 5731 5729 5727 5727 5727 5726 5726 5725 5725 5723 5722 5722 5720 5719 5718 5718 5717 5715 5715 5713 5712 5711 5710 5708 5707 5706 5705 5704 5702 5700 5699 5697 5695 5692 5690 5688 5686
5713 5703 5686 5677 5667 5662 5677 5687 5694 5714 5722 5727 5727 5727 5728 5728 5727 5726 5726 5726 5725 5725 5723 5722 5720 5718 5717 5717 5716 5714 5713 5712 5711 5709 5707 5706 5705 5704 5703 5701 5699 5698 5696 5694 5692 5689 5687 5685 5683
5705 5701 5692 5680 5677 5665 5665 5683 5721 5722 5728 5728 5730 5731 5731 5729 5728 5727 5727 5727 5726 5724 5722 5720 5719 5717 5716 5715 5714 5712 5710 5710 5708 5707 5705 5704 5703 5702 5700 5698 5696 5694 5692 5691 5689 5686 5684 5681 5679
5713 5707 5695 5680 5677 5676 5671 5687 5735 5734 5736 5735 5733 5734 5733 5733 5731 5729 5727 5725 5723 5721 5720 5719 5718 5716 5715 5714 5712 5710 5708 5707 5705 5704 5703 5702 5700 5699 5697 5695 5693 5691 5689 5688 5685 5683 5680 5678 5675